Track DRAGON ENDEAVOUR 4 now! 10-day predictions DRAGON ENDEAVOUR 4 is classified as:
1 55740U 23027A 23080.59213334 .00015261 00000-0 28104-3 0 9991 2 55740 51.6417 42.5066 0006123 115.9816 34.9851 15.49352032388208